Location: Prague
(50.0830°N, 14.4670°E)
Time: 15:20:38
(UTC+01:00)

XW-2F - Visible Passes

Search period start: 28 November 2021 00:00
Search period end: 08 December 2021 00:00
Orbit: 497 x 515 km, 97.5° (Epoch: 28 November)

Date Brightness Start Highest point End Pass type
(mag) Time Alt. Az. Time Alt. Az. Time Alt. Az.
28 Nov ? 05:11:42 10° ENE 05:13:38 14° E 05:15:34 10° ESE visible
28 Nov ? 06:44:09 10° N 06:47:53 60° WNW 06:51:36 10° SSW visible
28 Nov ? 17:27:08 10° S 17:30:49 68° W 17:34:32 10° NNW visible
29 Nov ? 06:26:23 10° NNE 06:30:10 87° E 06:33:57 10° SSW visible
29 Nov ? 17:09:23 10° SSE 17:13:04 76° ENE 17:16:49 10° N visible
29 Nov ? 18:46:39 10° W 18:47:27 11° W 18:48:16 10° WNW visible
30 Nov ? 06:08:41 10° NNE 06:12:25 54° E 06:16:06 10° S visible
30 Nov ? 16:51:48 10° SE 16:55:22 47° ENE 16:58:59 10° N visible
30 Nov ? 18:27:08 10° SW 18:29:31 16° W 18:31:55 10° NW visible
01 Dec ? 05:51:07 10° NNE 05:54:36 34° E 05:58:04 10° SSE visible
01 Dec ? 18:08:32 10° SSW 18:11:37 24° W 18:14:43 10° NW visible
02 Dec ? 05:33:42 10° NE 05:36:45 23° E 05:39:47 10° SSE visible
02 Dec ? 17:50:18 10° SSW 17:53:45 37° W 17:57:16 10° NNW visible
03 Dec ? 05:16:34 10° NE 05:18:50 15° E 05:21:06 10° SE visible
03 Dec ? 06:49:19 10° N 06:53:01 52° WNW 06:56:41 10° SSW visible
03 Dec ? 17:32:16 10° S 17:35:56 59° W 17:39:40 10° NNW visible
04 Dec ? 06:31:30 10° NNE 06:35:17 83° WNW 06:39:04 10° SSW visible
04 Dec ? 17:14:27 10° SSE 17:18:10 86° ENE 17:21:56 10° NNW visible
05 Dec ? 06:13:46 10° NNE 06:17:31 62° E 06:21:15 10° S visible
05 Dec ? 16:56:48 10° SSE 17:00:26 54° ENE 17:04:07 10° N visible
05 Dec ? 18:32:31 10° SW 18:34:38 15° W 18:36:47 10° NW visible
06 Dec ? 05:56:08 10° NNE 05:59:42 39° E 06:03:14 10° SSE visible
06 Dec ? 16:39:20 10° SE 16:42:44 35° ENE 16:46:11 10° N visible
06 Dec ? 18:13:45 10° SW 18:16:42 22° W 18:19:41 10° NW visible
07 Dec ? 05:38:38 10° NE 05:41:49 25° E 05:44:59 10° SSE visible
07 Dec ? 17:55:25 10° SSW 17:58:48 33° W 18:02:15 10° NNW visible
